User: anonymous   Login
Location: Unspecified
(0.0000°N, 0.0000°E)
Time: 03:28:18
(UTC+01:00)
Language:

Cosmos 1092 Rocket - Orbit

View from above orbital plane
View from above orbital plane
View from above satellite
View from above satellite

Ground track
Ground track

The orbit data is extracted from the following two-line orbital elements,

1 11327U 79030B   16337.22585456  .00000042  00000-0  26926-4 0  9995
2 11327  82.9510  82.1097 0027825  13.8271  48.4118 13.76961401892030
Epoch (UTC): 02 December 2016 05:25:13
Eccentricity: 0.0027825
inclination: 82.9510°
perigee height: 954 km
apogee height: 995 km
right ascension of ascending node: 82.1097°
argument of perigee: 13.8271°
revolutions per day: 13.76961401
mean anomaly at epoch: 48.4118°
orbit number at epoch: 89203

The dashed part of the orbit path shows where the satellite is in the earth's shadow,  

DLR